This is the latest recevied weather packets stored in our database for station/object N5RPG. If no packets are shown the sender has not sent any weather packets the latest 10 day(s).
| Time | Temp. | Humidity | Pressure | Rain* | Wind** | Luminosity | Snow |
|---|---|---|---|---|---|---|---|
| 1777942809 | 23.33° C | 59% | 1009.1 hPa | 0 mm | - | 3 W/m² | - |
| 1777942506 | 23.33° C | 58% | 1009.3 hPa | 0 mm | - | 5 W/m² | - |
| 1777942204 | 23.33° C | 57% | 1009.1 hPa | 0 mm | - | 8 W/m² | - |
| 1777941900 | 23.89° C | 56% | 1009.3 hPa | 0 mm | - | 11 W/m² | - |
| 1777941596 | 23.89° C | 55% | 1009.2 hPa | 0 mm | - | 16 W/m² | - |
| 1777941294 | 23.89° C | 53% | 1009.3 hPa | 0 mm | - | 19 W/m² | - |
| 1777940990 | 24.44° C | 53% | 1009.3 hPa | 0 mm | - | 27 W/m² | - |
| 1777940686 | 24.44° C | 52% | 1009.5 hPa | 0 mm | - | 32 W/m² | - |
| 1777940385 | 24.44° C | 52% | 1009.6 hPa | 0 mm | - | 39 W/m² | - |
| 1777940082 | 25° C | 51% | 1009.6 hPa | 0 mm | - | 46 W/m² | - |
| 1777939779 | 25° C | 49% | 1009.9 hPa | 0 mm | - | 48 W/m² | - |
| 1777939477 | 25° C | 49% | 1009.5 hPa | 0 mm | - | 42 W/m² | - |
| 1777939173 | 25.56° C | 48% | 1009.9 hPa | 0 mm | - | 28 W/m² | - |
| 1777938871 | 25.56° C | 47% | 1010 hPa | 0 mm | - | 37 W/m² | - |
| 1777938567 | 26.11° C | 46% | 1009.9 hPa | 0 mm | - | 73 W/m² | - |
| 1777938265 | 26.11° C | 47% | 1009.9 hPa | 0 mm | - | 90 W/m² | - |
| 1777937961 | 26.11° C | 47% | 1009.9 hPa | 0 mm | - | 91 W/m² | - |
| 1777937657 | 26.67° C | 45% | 1010.1 hPa | 0 mm | - | 127 W/m² | - |
| 1777937354 | 26.67° C | 44% | 1010.3 hPa | 0 mm | - | 167 W/m² | - |
| 1777937051 | 26.67° C | 43% | 1010.3 hPa | 0 mm | - | 163 W/m² | - |
| 1777936748 | 27.22° C | 44% | 1010.4 hPa | 0 mm | - | 194 W/m² | - |
| 1777936444 | 27.22° C | 43% | 1010.4 hPa | 0 mm | - | 80 W/m² | - |
| 1777936140 | 27.22° C | 44% | 1010.5 hPa | 0 mm | - | 254 W/m² | - |
| 1777935838 | 27.22° C | 44% | 1010.5 hPa | 0 mm | - | 256 W/m² | - |
| 1777935536 | 27.78° C | 43% | 1010.4 hPa | 0 mm | - | 281 W/m² | - |
* Rain latest hour (hover to see other rain measurements)
** Current wind speed in m/s (hover to see current wind gust speed)